Location: Newark
(44.3248°N, 23.7839°E)
Time: 15:22:52
(UTC+00:00)

FO-29 - Pass Details

Date: 24 April 2024
Orbit: 801 x 1320 km, 98.6° (Epoch: 19 May)

Event Time Altitude Azimuth Distance (km) Brightness Sun altitude
Rises 02:09:32 0° 4° (N) 4,165 13.4 -13.1°
Reaches altitude 10° 02:12:44 10° 351° (N) 3,255 12.5 -12.6°
Maximum altitude 02:18:20 23° 303° (WNW) 2,458 11.4 -11.8°
Enters shadow 02:23:42 11° 258° (WSW) 3,244 11.6 -10.9°
